Tracking 35331 objects as of 16-Sep-2026
HD Live streaming from Space Station
objects crossing your sky now

STARLINK-3741

Track STARLINK-3741 now!
10-day predictions
STARLINK-3741 is classified as:


NORAD ID: 52619
Int'l Code: 2022-052X
Launch date: May 14, 2022
Source: United States (US)
Launch site: AIR FORCE EASTERN TEST RANGE (AFETR)
Your satellite tracking list
Your tracking list is empty




NASA's NSSDC Master Catalog

Two Line Element Set (TLE):
1 52619U 22052X   26259.03612520  .00001518  00000-0  56069-4 0  9992
2 52619  53.1617 120.5105 0000915 102.7825 257.3280 15.34392519239915
Source of the keplerian elements: AFSPC